Location: Elbart
(49.6135°N, 11.9134°E)
Time: 08:20:51
(UTC+00:00)

Daily predictions for brighter satellites

Satellite Brightness Start Highest point End
(mag) Time Altitude Azimuth Time Altitude Azimuth Time Altitude Azimuth
Cosmos 2251 Rocket 4.3 18:24:14 10° SW 18:29:34 62° WNW 18:34:56 10° NNE
STARLINK-1189 2.9 18:27:06 10° WNW 18:30:14 85° NNE 18:33:21 10° ESE
STARLINK-1198 2.9 18:27:34 10° WNW 18:30:42 85° NNE 18:33:49 10° ESE
STARLINK-1188 2.9 18:27:59 10° WNW 18:31:08 86° NNE 18:34:15 10° ESE
STARLINK-1143 4.0 18:27:21 10° WNW 18:31:28 61° NNE 18:35:35 10° E
Cosmos 1140 Rocket 4.1 18:26:59 10° SSE 18:31:38 34° ESE 18:36:16 10° NE
STARLINK-1235 2.9 18:28:39 10° WNW 18:31:49 81° SSW 18:34:58 10° ESE
STARLINK-1187 2.9 18:29:04 10° WNW 18:32:14 87° SSW 18:35:23 10° ESE
Cosmos 1943 Rocket 4.4 18:28:13 10° NW 18:32:46 27° WSW 18:37:21 10° SSW
STARLINK-1199 2.9 18:29:57 10° WNW 18:33:06 88° NNE 18:36:15 10° ESE
STARLINK-1191 2.9 18:30:23 10° WNW 18:33:33 88° NNE 18:36:42 10° ESE
Ariane Rocket 3.1 18:28:46 10° SSE 18:33:51 88° WSW 18:38:57 10° NNW
STARLINK-1210 2.9 18:30:51 10° WNW 18:34:00 89° NNE 18:37:09 10° ESE
STARLINK-1221 2.9 18:31:17 10° WNW 18:34:27 89° NNE 18:37:36 10° ESE
STARLINK-1219 2.9 18:31:45 10° WNW 18:34:54 90° NNE 18:38:04 10° ESE
STARLINK-1222 2.9 18:32:11 10° WNW 18:35:21 90° SE 18:38:30 10° ESE
STARLINK-1211 2.9 18:32:40 10° WNW 18:35:49 89° SW 18:38:58 10° ESE
STARLINK-1214 2.9 18:33:07 10° WNW 18:36:15 89° SSW 18:39:23 10° ESE
STARLINK-1241 3.9 18:32:22 10° WNW 18:36:30 63° NNE 18:40:37 10° E
STARLINK-1245 2.8 18:33:34 10° WNW 18:36:42 89° SSW 18:39:48 10° ESE
STARLINK-1238 2.9 18:34:00 10° WNW 18:37:09 88° SSW 18:40:15 10° ESE
ERBS 3.3 18:34:51 10° NW 18:38:03 38° NNE 18:41:15 10° E
STARLINK-1205 2.9 18:34:56 10° WNW 18:38:04 87° SSW 18:41:06 11° ESE
APEX 4.4 18:31:37 10° NNW 18:38:14 85° WSW 18:43:35 10° SSE
STARLINK-1204 2.8 18:35:23 10° WNW 18:38:31 87° SSW 18:41:33 11° ESE
Meteor 1-16 Rocket 4.2 18:33:36 10° S 18:39:02 81° E 18:44:42 10° NNE
Cosmos 614 Rocket 4.0 18:34:16 10° S 18:39:24 63° ESE 18:44:34 10° NNE
CZ-2C R/B 2.8 18:34:36 10° SSE 18:39:26 82° ENE 18:44:12 10° NNW
STARLINK-1239 3.9 18:37:20 10° WNW 18:41:29 65° NNE 18:45:35 10° E
ATLAS CENTAUR R/B 3.6 18:40:03 10° NNW 18:42:11 14° NNE 18:44:15 10° NE
MONITOR-E 3.7 18:40:11 10° SSE 18:42:48 83° ENE 18:45:27 10° NNW
STARLINK-29 3.6 18:40:47 10° SSW 18:43:43 34° SE 18:46:41 10° ENE
Cosmos 1190 Rocket 4.2 18:40:21 10° S 18:45:28 51° ESE 18:50:35 10° NNE
SJ-6B 2.9 18:41:50 10° SSE 18:45:56 74° ENE 18:50:05 10° N
Resurs 1-3 4.1 18:42:18 10° SE 18:46:24 41° ENE 18:50:32 10° N
STARLINK-1240 3.8 18:42:19 10° WNW 18:46:29 68° NNE 18:50:22 11° E
Aureole 1 Rocket 4.0 18:39:24 10° S 18:46:38 66° ESE 18:52:13 10° NNE
Cosmos 1300 3.9 18:44:38 10° SE 18:47:43 24° E 18:50:48 10° NE
BREEZE-M DEB (TANK) 4.0 18:41:02 10° WNW 18:48:09 62° SSW 18:50:46 13° SE
Cosmos 2369 Rocket 4.3 18:45:24 10° NW 18:50:02 26° WSW 18:54:38 10° SSW
STARLINK-60 2.9 18:47:59 10° WSW 18:51:14 73° SSE 18:54:31 10° ENE
SL-24 R/B 4.3 18:47:34 10° NNE 18:51:21 38° E 18:54:50 10° SSE
STARLINK-1216 3.8 18:47:17 10° WNW 18:51:26 70° NNE 18:55:08 13° E
CZ-2C R/B 4.1 18:49:41 10° NNE 18:54:12 45° E 18:58:37 10° S
STARLINK-1237 3.7 18:52:15 10° WNW 18:56:24 73° NNE 18:59:54 14° ESE
Cosmos 2058 Rocket 3.1 18:55:37 10° S 19:00:04 61° E 19:04:31 10° NNE
STARLINK-1202 3.7 18:57:15 10° WNW 19:01:25 76° NNE 19:04:42 16° ESE
Cosmos 1726 Rocket 3.6 18:58:18 10° S 19:02:43 84° W 19:07:13 10° N
SL-08 RB Rocket 3.7 18:58:23 10° SSE 19:02:58 89° WSW 19:07:37 10° NNW
Cosmos 1461 3.7 18:58:42 10° NW 19:03:09 56° WSW 19:07:42 10° SSE
STARLINK-1228 3.6 19:00:44 10° WNW 19:03:32 40° SSW 19:05:31 16° SSE
DMSP B5D2-2 4.4 19:00:20 10° NNE 19:05:21 45° E 19:10:22 10° S
Cosmos 921 Rocket 2.9 19:01:09 10° NNW 19:05:22 88° ENE 19:09:35 10° SSE
Cosmos 1703 4.2 19:01:43 10° NNW 19:05:35 50° W 19:09:25 10° S
Cosmos 2341 Rocket 4.1 18:59:57 10° N 19:06:18 62° ENE 19:12:37 10° SSE
Cosmos 1726 4.0 19:04:04 10° SW 19:07:31 35° WNW 19:10:59 10° N
SL-4 R/B 1.6 19:04:18 10° WSW 19:07:42 80° NNW 19:10:57 11° ENE
CZ-4C R/B 3.9 19:03:52 10° NW 19:09:46 33° NNE 19:16:36 10° E
Cosmos 407 Rocket 3.5 19:05:53 10° SSW 19:11:02 88° WNW 19:16:12 10° NNE
Cosmos 1908 3.7 19:07:19 10° SSW 19:11:10 64° WNW 19:15:04 10° N
STARLINK-1246 3.6 19:07:13 10° WNW 19:11:23 82° NNE 19:14:15 19° ESE
Cosmos 1340 Rocket 2.7 19:07:34 10° S 19:11:37 82° ESE 19:15:40 10° NNE
FREGAT/IRIS 4.4 19:09:26 10° SSW 19:11:52 29° W 19:14:19 10° NNW
RESURS DK-1 4.0 19:08:46 10° N 19:12:05 22° NE 19:14:21 15° E
STARLINK-1201 3.3 19:09:26 10° WNW 19:12:39 55° SSW 19:14:33 21° SE
Cosmos 2228 3.8 19:09:27 10° SSW 19:13:41 56° WNW 19:18:00 10° N
Cosmos 676 Rocket 4.1 19:09:31 10° S 19:14:40 55° ESE 19:19:47 10° NNE
COSMOS 2406 4.4 19:13:01 17° SE 19:15:00 20° E 19:18:59 10° NE
STARLINK-1224 3.6 19:12:13 10° WNW 19:16:23 86° NNE 19:19:04 21° ESE
Cosmos 2218 Rocket 4.3 19:11:28 10° N 19:17:27 47° ENE 19:22:17 16° SE
STARLINK-1203 3.6 19:14:21 10° WNW 19:18:35 89° SSW 19:21:13 22° ESE
Cosmos 2058 3.7 19:15:25 10° N 19:19:13 34° ENE 19:21:10 22° ESE
Cosmos 220 Rocket 4.2 19:15:11 10° NNW 19:19:27 55° ENE 19:22:11 21° SE
MetOp-A 4.2 19:14:31 10° SSE 19:19:53 87° WSW 19:25:18 10° NNW
Resurs 01 Rocket 1.7 19:17:43 15° SSE 19:21:15 63° ENE 19:25:38 10° N
STARLINK-1225 3.6 19:17:13 10° WNW 19:21:23 89° NNE 19:23:51 23° ESE
MOS 1 Rocket 3.7 19:16:36 10° NNE 19:21:58 60° E 19:27:20 10° S
CZ-2C R/B 2.6 19:18:11 10° NNE 19:23:17 55° E 19:28:24 10° S
STARLINK-52 2.9 19:20:51 10° SW 19:24:01 61° SSE 19:25:57 21° ENE
Nadezhda 1 Rocket 4.4 19:19:40 10° SSW 19:26:03 70° WNW 19:32:23 10° N
STARLINK-1230 3.6 19:22:11 10° WNW 19:26:20 87° SSW 19:28:37 26° ESE
BREEZE M DEB (TANK) 3.5 19:23:34 10° SSW 19:26:46 37° SE 19:34:54 10° ENE
Cosmos 962 Rocket 4.5 19:21:00 10° N 19:27:12 90° WSW 19:33:20 10° S
Cosmos 1812 Rocket 4.1 19:25:20 21° SE 19:27:35 35° E 19:31:33 10° NNE
SPOT 3 Rocket 3.8 19:23:49 10° S 19:29:00 69° WSW 19:34:13 10° NNW
Cosmos 1697 Rocket 3.8 19:24:34 10° NNW 19:29:36 31° NE 19:32:44 19° E
SL-8 Rocket 4.0 19:23:31 10° N 19:29:51 67° ENE 19:35:13 15° SSE
Cosmos 2151 4.4 19:26:48 10° NNE 19:30:04 21° ENE 19:30:59 20° E
ARGOS 4.3 19:25:31 10° S 19:30:37 43° W 19:35:45 10° NNW
STARLINK-1243 3.6 19:27:08 10° WNW 19:31:18 83° SSW 19:33:24 28° ESE
FALCON 9 DEB 3.0 19:28:53 10° WSW 19:32:22 71° SSE 19:34:33 21° ENE
Iridium 2 3.9 19:33:27 25° SSE 19:35:21 49° E 19:39:04 10° NNE
Cosmos 2181 Rocket 4.0 19:30:07 10° S 19:36:14 61° E 19:42:19 10° NNE
Cosmos 1954 Rocket 3.9 19:31:01 10° SSW 19:36:15 78° ESE 19:41:29 10° NNE
STARLINK-1236 3.6 19:32:08 10° WNW 19:36:17 78° SSW 19:38:11 31° SE
MINOTAUR IV R/B 4.5 19:33:04 10° SSW 19:37:33 84° ESE 19:42:03 10° NNE
Cosmos 2366 rocket 3.9 19:37:50 10° N 19:43:59 68° ENE 19:48:11 21° SSE
Cosmos 1741 Rocket 4.5 19:41:05 19° SSE 19:44:18 39° ESE 19:49:13 10° NE
Cosmos 1076 Rocket 3.5 19:40:08 10° N 19:44:24 64° ENE 19:46:20 31° SSE
STARLINK-1269 3.6 19:42:05 10° WNW 19:46:13 70° SSW 19:47:44 37° SE
Landsat 7 4.2 19:46:17 30° ESE 19:48:09 46° ENE 19:52:43 10° N
Cosmos 1959 Rocket 4.5 19:41:53 10° N 19:48:14 75° E 19:52:35 21° SSE
Cosmos 1656 3.8 19:42:59 10° NNW 19:48:39 60° ENE 19:51:23 30° SE
Cosmos 1763 Rocket 3.5 19:43:59 10° NNW 19:49:09 63° ENE 19:51:29 32° SE
SL-16 R/B 4.4 19:47:29 10° N 19:50:22 14° NNE 19:53:15 10° ENE
STARLINK-1200 3.7 19:47:04 10° WNW 19:51:12 66° SSW 19:52:31 40° SE
SPOT 1/Viking Rocket 4.0 19:50:06 30° ESE 19:52:16 47° ENE 19:57:16 10° N
Cosmos 540 Rocket 4.2 19:47:54 10° N 19:52:43 37° ENE 19:54:31 28° E
Cosmos 1455 3.4 19:56:32 27° ENE 19:56:32 27° ENE 19:59:10 10° NNE
STARLINK-1192 3.8 19:52:04 10° WNW 19:56:09 62° SSW 19:57:18 43° SSE
Cosmos 2322 Rocket 4.4 19:54:39 10° N 19:57:20 13° NNE 20:00:01 10° ENE
Iridium 4 Rocket 2.9 19:53:39 10° N 19:57:49 65° E 19:59:05 41° SSE
USA 234 3.7 19:52:52 10° ENE 19:58:52 37° SE 20:04:49 10° SSW
Cosmos 1980 Rocket 3.4 19:54:51 10° NNW 19:59:45 30° NE 20:02:02 22° E
Cosmos 1174 4.2 19:56:30 10° NW 20:00:38 72° SW 20:02:39 35° SSE
Dummy Sat-02 4.5 19:59:55 40° S 20:01:11 83° E 20:04:58 10° N
STARLINK-1244 3.8 19:57:08 10° WNW 20:01:13 58° SSW 20:02:10 45° SSE
Cosmos 1892 2.6 19:57:23 10° N 20:01:18 75° E 20:02:13 50° SSE
Abrixas rocket 4.1 20:00:22 10° WSW 20:02:07 18° SW 20:02:07 18° SW
Cosmos 1825 3.1 20:02:22 10° N 20:05:39 34° ENE 20:05:39 34° ENE
STARLINK-1138 3.9 20:02:02 10° WNW 20:06:06 54° SSW 20:06:52 46° S
ATLAS 5 CENTAUR R/B 2.7 20:02:02 10° WSW 20:06:11 47° NW 20:10:56 10° NE
Cosmos-2242 3.5 20:08:42 39° E 20:08:42 39° E 20:12:36 10° NNE
COSMOS 2455 4.1 20:04:11 10° NW 20:09:36 35° WSW 20:13:56 15° S
STARLINK-1143 3.9 20:07:01 10° WNW 20:11:03 51° SSW 20:11:39 46° S
Cosmos 1356 Rocket 3.7 20:13:46 49° E 20:13:46 49° E 20:17:48 10° NNE
Cosmos 489 Rocket 4.4 20:07:43 10° NNW 20:13:57 73° ENE 20:16:29 38° SE
ERBS 3.0 20:11:12 10° WNW 20:14:20 43° SW 20:14:20 43° SW
STARLINK-1241 4.0 20:12:04 10° WNW 20:16:03 47° SSW 20:16:28 45° SSW
STARLINK-29 3.4 20:16:36 10° W 20:19:44 61° NNW 20:19:44 61° NNW
SAR-Lupe-2 3.8 20:16:42 10° N 20:20:17 68° WNW 20:21:14 44° SW
STARLINK-1239 4.1 20:17:03 10° WNW 20:21:00 44° SW 20:21:14 44° SSW
IGS 5A 3.3 20:20:27 62° SSE 20:21:08 87° ENE 20:25:19 10° NNW
ATLAS CENTAUR R/B 1.6 20:18:16 10° NNW 20:22:04 47° NE 20:22:10 47° NE
Spot 2 Rocket 3.7 20:22:15 33° S 20:24:30 68° WSW 20:29:37 10° NNW
Cosmos 1821 Rocket 4.1 20:18:20 10° N 20:24:40 59° ENE 20:26:40 42° SE
USA 32 3.9 20:19:46 10° N 20:25:01 74° E 20:26:23 49° SSE
STARLINK-1240 4.3 20:22:02 10° WNW 20:25:58 41° SW 20:26:01 41° SSW
STARLINK-60 3.9 20:24:33 10° W 20:27:44 46° N 20:27:48 46° N
Cosmos 1850 Rocket 3.9 20:24:21 18° SSW 20:28:12 88° ESE 20:33:25 10° NNE
Cosmos 841 Rocket 3.4 20:23:03 10° NNW 20:28:22 75° ENE 20:29:32 54° SE
Terra 2.2 20:29:53 46° E 20:30:16 47° ENE 20:34:50 10° N
Mayak 1.1 20:27:49 10° NE 20:28:24 12° NE 20:28:24 12° NE
STARLINK-1216 4.4 20:27:02 10° WNW 20:30:47 38° SW 20:30:47 38° SW
Cosmos 2278 4.0 20:25:37 10° NNW 20:31:10 53° NE 20:32:29 43° E
SPOT 5 2.6 20:31:40 61° E 20:31:49 61° ENE 20:36:06 10° N
Cosmos 2082 Rocket 3.5 20:34:09 25° ENE 20:34:09 25° ENE 20:37:11 10° NE
SL-08 R/B 4.5 20:27:48 10° NNW 20:33:58 79° W 20:36:44 35° S
Meteor 2-10 Rocket 3.5 20:33:52 54° SSE 20:34:58 70° E 20:40:25 10° NNE
Cosmos 1833 Rocket 2.9 20:39:02 49° ESE 20:39:02 49° ESE 20:44:13 10° NE
CARTOSAT-1 3.4 20:39:31 78° E 20:39:35 79° ENE 20:43:57 10° NNW
Cosmos 1408 3.2 20:43:39 10° NNW 20:46:55 53° WNW 20:46:55 53° WNW
SL-4 R/B 2.7 20:44:02 10° WNW 20:46:33 43° NW 20:46:33 43° NW
ERS-1 Rocket 2.9 20:47:01 62° S 20:47:51 80° WSW 20:52:55 10° NNW
RESURS DK-1 2.8 20:46:22 10° NW 20:50:15 54° WSW 20:50:15 54° WSW
Cosmos 1766 Rocket 3.5 20:48:23 10° NNW 20:52:50 82° W 20:52:50 82° W
Cosmos 1570 Rocket 4.3 20:48:14 10° NNW 20:53:32 60° WSW 20:54:32 50° SSW
Okean 3 Rocket 3.7 20:50:00 10° NNW 20:54:25 67° W 20:54:34 66° WSW
BREEZE M DEB (TANK) 3.6 20:49:13 10° W 20:53:25 44° WSW 20:53:25 44° WSW
Resurs 01 Rocket 4.1 20:55:22 10° SW 20:58:11 16° W 21:01:00 10° NW
COSMOS 2406 3.3 20:54:52 22° SW 20:58:39 78° WNW 21:04:24 10° NNE
CZ-4C R/B 2.9 20:52:20 10° NW 20:59:22 78° NE 21:01:49 48° ESE
Cosmos 2151 3.9 21:03:35 10° NNW 21:07:34 42° W 21:07:35 42° W
Cosmos 1697 Rocket 2.9 21:08:21 10° NW 21:13:56 59° WSW 21:14:29 56° SW
Cosmos 2369 3.9 21:08:29 10° NW 21:14:03 60° WSW 21:14:33 57° SW
Cosmos 1455 4.2 21:31:25 25° WNW 21:31:26 25° WNW 21:34:40 10° NNW
Cosmos 1408 Rocket 4.4 21:27:46 10° NNW 21:31:22 47° WNW 21:31:22 47° WNW
Cosmos 540 Rocket 4.5 21:29:36 10° NW 21:34:19 37° WSW 21:34:20 37° WSW
Cosmos 1743 Rocket 4.4 21:30:25 10° N 21:33:44 49° N 21:33:44 49° N
SL-16 R/B 2.8 21:30:35 10° NNW 21:36:02 45° NE 21:36:11 45° ENE
Cosmos 2360 Rocket 3.7 21:31:47 10° NNW 21:36:26 25° NE 21:37:32 24° ENE
Thor Agena Rocket 4.3 21:32:44 10° NNE 21:36:20 43° NE 21:36:20 43° NE
USA 234 3.2 21:35:44 10° ENE 21:42:19 85° NNW 21:48:52 10° WSW
Cosmos 2322 Rocket 2.9 21:37:36 10° NNW 21:43:00 43° NE 21:43:04 43° NE
Cosmos 1980 Rocket 2.4 21:38:37 10° NW 21:43:48 60° W 21:43:48 60° W
Cosmos 2221 3.9 21:46:37 35° NNE 21:46:37 35° NNE 21:49:12 10° N
ASTEX 1 4.0 21:50:00 52° WNW 21:50:00 52° WNW 21:54:18 10° NNW
ATLAS 5 CENTAUR R/B 4.4 21:48:39 10° WNW 21:52:04 19° NNW 21:55:51 10° NE
Meteor 2-3 Rocket 4.4 21:49:46 10° NNW 21:55:14 46° W 21:55:21 46° W
Cosmos 2333 Rocket 4.3 21:54:12 10° N 21:58:07 19° NE 22:00:26 15° ENE
ATLAS CENTAUR R/B 4.0 21:57:45 10° WNW 21:58:21 13° WNW 21:58:21 13° WNW
Cosmos 1727 Rocket 4.1 22:05:51 66° ENE 22:05:51 66° ENE 22:11:36 10° NNE
Mayak 0.4 22:02:31 10° N 22:04:58 32° NNW 22:04:58 32° NNW
Terra 3.6 22:08:45 24° W 22:08:45 24° W 22:12:09 10° NW
Cosmos 1153 Rocket 4.4 22:02:33 10° N 22:08:42 84° N 22:08:42 84° N
Cosmos 2082 Rocket 2.7 22:15:56 54° WNW 22:16:09 54° NW 22:21:45 10° NNE
Cosmos 1802 Rocket 4.4 22:12:36 10° N 22:18:13 53° ENE 22:18:13 53° ENE
Cosmos 2100 Rocket 4.1 22:14:56 10° N 22:20:40 69° NE 22:20:40 69° NE
Cosmos 1833 Rocket 4.1 22:20:38 25° W 22:22:55 35° NW 22:28:05 10° NNE
Cosmos 968 Rocket 4.3 22:25:40 48° N 22:25:40 48° N 22:29:30 10° NNE
Cosmos 2173 Rocket 4.1 22:20:49 10° N 22:26:16 67° NNE 22:26:16 67° NNE
Cosmos 2219 Rocket 3.8 22:28:55 10° NNW 22:33:34 26° NE 22:34:42 24° ENE
ALOS 2 4.3 22:36:50 32° NNW 22:36:50 32° NNW 22:39:13 10° NNW
CZ-4C R/B 3.9 22:41:17 10° NW 22:46:59 33° WSW 22:46:59 33° WSW
Cosmos 2322 4.4 22:54:08 10° NNW 22:59:14 49° NE 22:59:14 49° NE
COSMOS 2428 3.9 22:57:58 10° NNW 23:03:12 36° NE 23:03:37 35° ENE
Cosmos 839 Rocket 4.3 23:14:56 63° ENE 23:14:56 63° ENE 23:20:49 10° NE
SL-16 R/B 3.7 23:14:55 10° NW 23:18:02 28° WNW 23:18:02 28° WNW
Cosmos 2360 Rocket 3.0 23:15:24 10° NNW 23:19:17 45° NW 23:19:17 45° NW
CZ-2D R/B 4.5 23:19:25 10° ENE 23:21:40 13° E 23:21:40 13° E
USA 234 4.0 23:18:46 10° ENE 23:25:02 50° N 23:31:17 10° W
Cosmos 2322 Rocket 3.7 23:21:50 10° NW 23:24:52 28° WNW 23:24:52 28° WNW
Cosmos 2061 Rocket 4.5 23:25:36 10° NNW 23:30:49 52° WNW 23:30:49 52° WNW
MOS 1-B Rocket 4.3 23:34:07 10° N 23:40:19 68° WNW 23:40:21 68° WNW
Cosmos 2333 Rocket 2.7 23:37:47 10° NNW 23:42:26 57° N 23:42:26 57° N
Cosmos 2237 Rocket 3.7 23:39:20 10° NNW 23:44:23 31° NE 23:46:25 25° E
Cosmos 2233 Rocket 4.2 23:42:22 10° NNW 23:47:50 67° NW 23:47:50 67° NW
SL-16 R/B 3.5 23:48:42 35° E 23:50:08 40° ENE 23:55:53 10° N
Lacrosse 5 rocket 4.2 23:54:19 11° ENE 23:54:19 11° ENE 23:54:31 10° ENE
Cosmos 1680 Rocket 4.4 23:45:29 10° NNW 23:49:10 46° NNW 23:49:10 46° NNW
